This demonstration page uses our WeatherBlox Daily Observations layout. Learn more.

Left ArrowRight Arrow

39.51506, -84.39828

Hourly Observations for August 19, 2020

Temp ( °F °C ) Dew Point ( °F °C ) Humidity (%) Winds ( mph kmh ) Pressure ( in mb ) Visibility ( mi km ) Precip ( " mm )
12:15 am 00:15 Cloudy 61 16.3 59 14.9 91 91 N 5 7 30.01 1016 10 16.0934 0 0
12:35 am 00:35 Partly Cloudy 62 16.6 58 14.6 88 88 NE 3 6 30.01 1016 10 16.0934 0 0
12:55 am 00:55 Mostly Cloudy 62 16.5 58 14.4 87 87 Calm 30.02 1017 10 16.0934 0 0
1:15 am 01:15 Cloudy 62 16.5 58 14.7 89 89 Calm 30.02 1017 10 16.0934 0 0
1:35 am 01:35 Cloudy 62 16.4 58 14.7 90 90 N 5 7 30.02 1017 10 16.0934 0 0
1:55 am 01:55 Mostly Cloudy 61 16.2 58 14.3 89 89 N 3 6 30.01 1016 10 16.0934 0 0
2:15 am 02:15 Partly Cloudy 60 15.8 57 13.9 89 89 Calm 30.01 1016 10 16.0934 0 0
2:35 am 02:35 Cloudy 61 16.1 58 14.4 90 90 Calm 30.01 1016 10 16.0934 0 0
2:55 am 02:55 Cloudy 61 16.1 58 14.3 89 89 Calm 30.01 1016 10 16.0934 0 0
3:15 am 03:15 Mostly Cloudy 60 15.6 58 14.4 93 93 Calm 30.03 1017 10 16.0934 0 0
3:35 am 03:35 Mostly Cloudy 60 15.8 58 14.2 90 90 Calm 30.02 1017 10 16.0934 0 0
3:55 am 03:55 Clear 59 15.1 57 13.7 91 91 Calm 30.02 1016 10 16.0934 0 0
4:15 am 04:15 Partly Cloudy 59 14.9 56 13.6 92 92 NNE 3 6 30.02 1016 10 16.0934 0 0
4:35 am 04:35 Clear 58 14.7 56 13.5 93 93 N 6 9 30.02 1016 10 16.0934 0 0
4:55 am 04:55 Clear 58 14.3 56 13.5 95 95 N 5 7 30.01 1016 10 16.0934 0 0
5:15 am 05:15 Clear 57 13.9 56 13.1 95 95 Calm 30.01 1016 10 16.0934 0 0
5:35 am 05:35 Clear 56 13.2 55 12.5 96 96 Calm 30.02 1017 10 16.0934 0 0
5:55 am 05:55 Clear 55 13 55 12.5 97 97 N 3 6 30.03 1017 10 16.0934 0 0
6:15 am 06:15 Clear 55 13 54 12.4 96 96 N 3 6 30.03 1017 10 16.0934 0 0
6:35 am 06:35 Clear 55 12.8 54 12.3 97 97 Calm 30.04 1017 10 16.0934 0 0
6:55 am 06:55 Sunny 55 13 54 12.3 96 96 Calm 30.04 1017 10 16.0934 0 0
7:15 am 07:15 Sunny 55 12.9 54 12.2 96 96 Calm 30.05 1018 10 16.0934 0 0
7:35 am 07:35 Sunny 55 13 55 12.5 97 97 Calm 30.05 1018 10 16.0934 0 0
7:55 am 07:55 Sunny 55 13 55 13 100 100 Calm 30.06 1018 10 16.0934 0 0
8:15 am 08:15 Sunny 59 15 56 13.1 89 89 Calm 30.07 1018 10 16.0934 0 0
8:35 am 08:35 Sunny 61 15.9 56 13.4 85 85 Calm 30.07 1018 10 16.0934 0.01 0.254
8:55 am 08:55 Sunny 62 16.7 56 13.4 81 81 Calm 30.07 1018 10 16.0934 0.01 0.254
9:15 am 09:15 Sunny 64 17.5 57 13.7 79 79 Calm 30.08 1019 10 16.0934 0 0
9:35 am 09:35 Sunny 65 18.2 56 13.5 74 74 Calm 30.07 1018 10 16.0934 0 0
9:55 am 09:55 Sunny 66 19.1 57 13.9 72 72 NNE 3 6 30.08 1019 10 16.0934 0 0
10:15 am 10:15 Sunny 67 19.7 58 14.4 72 72 Calm 30.08 1018 10 16.0934 0 0
10:35 am 10:35 Sunny 69 20.5 58 14.6 69 69 NNE 5 7 30.07 1018 10 16.0934 0 0
10:55 am 10:55 Sunny 70 20.9 58 14.5 67 67 Calm 30.07 1018 10 16.0934 0 0
11:15 am 11:15 Sunny 72 22 59 15.1 65 65 NE 5 7 30.07 1018 10 16.0934 0 0
11:35 am 11:35 Partly Cloudy 73 22.6 59 15.2 63 63 NNE 6 9 30.07 1018 10 16.0934 0 0
11:55 am 11:55 Mostly Cloudy 75 24.1 57 14.1 54 54 E 10 17 30.07 1018 10 16.0934 0 0
12:15 pm 12:15 Sunny 75 23.9 57 13.7 53 53 E 9 15 30.07 1018 10 16.0934 0 0
12:35 pm 12:35 Mostly Cloudy 76 24.3 57 14.1 53 53 NE 6 9 30.05 1018 10 16.0934 0 0
12:55 pm 12:55 Partly Cloudy 74 23.3 56 13.4 54 54 NE 7 11 30.06 1018 10 16.0934 0 0
1:15 pm 13:15 Mostly Cloudy 76 24.7 57 14 51 51 ENE 7 11 30.04 1017 10 16.0934 0 0
1:35 pm 13:35 Partly Cloudy 77 25.1 57 13.7 49 49 E 8 13 30.04 1017 10 16.0934 0 0
1:55 pm 13:55 Mostly Cloudy 76 24.3 56 13.6 51 51 ENE 8 13 30.04 1017 10 16.0934 0 0
2:15 pm 14:15 Mostly Cloudy 76 24.7 56 13.3 49 49 NNE 7 11 30.03 1017 10 16.0934 0.01 0.254
2:35 pm 14:35 Mostly Cloudy 76 24.7 56 13.4 49 49 NNE 5 7 30.04 1017 10 16.0934 0.01 0.254
2:55 pm 14:55 Mostly Cloudy 77 25 57 14 51 51 E 5 7 30.03 1017 10 16.0934 0.01 0.254
3:15 pm 15:15 Mostly Cloudy 79 26 55 13 45 45 NNE 7 11 30.03 1017 10 16.0934 0 0
3:35 pm 15:35 Mostly Cloudy 77 25 55 13 47 47 N 6 9 30.02 1017 10 16.0934 0 0
3:55 pm 15:55 Mostly Cloudy 77 25 55 13 47 47 NE 3 6 30.02 1017 10 16.0934 0 0
4:15 pm 16:15 Mostly Cloudy 79 26 55 13 45 45 NE 5 7 30.01 1016 10 16.0934 0 0
4:35 pm 16:35 Partly Cloudy 79 26 55 13 45 45 NNE 7 11 30 1016 10 16.0934 0 0
4:55 pm 16:55 Cloudy 79 26 56 13.4 46 46 ENE 9 15 30 1016 10 16.0934 0 0
5:15 pm 17:15 Partly Cloudy 75 24 55 12.5 49 49 ENE 7 11 30.01 1016 10 16.0934 0 0
5:35 pm 17:35 Mostly Cloudy 78 25.8 56 13.1 45 45 ENE 10 17 30 1016 10 16.0934 0 0
5:55 pm 17:55 Sunny 78 25.4 54 12.4 44 44 N 6 9 29.99 1016 10 16.0934 0 0
6:15 pm 18:15 Sunny 78 25.5 54 12.3 44 44 NE 10 17 30 1016 10 16.0934 0 0
6:35 pm 18:35 Sunny 77 25.2 54 12.1 44 44 N 8 13 29.99 1016 10 16.0934 0 0
6:55 pm 18:55 Mostly Cloudy 77 25.1 55 12.9 47 47 N 8 13 29.99 1016 10 16.0934 0 0
7:15 pm 19:15 Mostly Cloudy 77 24.9 55 12.8 47 47 NNE 5 7 29.99 1016 10 16.0934 0 0
7:35 pm 19:35 Cloudy 76 24.4 56 13.3 50 50 NNE 6 9 29.99 1016 10 16.0934 0 0
7:55 pm 19:55 Mostly Cloudy 74 23.6 55 12.8 51 51 E 6 9 30.01 1016 10 16.0934 0 0
8:15 pm 20:15 Sunny 71 21.8 57 13.9 61 61 ENE 3 6 30.01 1016 10 16.0934 0 0
8:35 pm 20:35 Clear 68 19.9 60 15.5 76 76 Calm 30.02 1017 10 16.0934 0 0
8:55 pm 20:55 Clear 66 18.7 61 15.9 84 84 Calm 30.04 1017 10 16.0934 0 0
9:15 pm 21:15 Partly Cloudy 64 17.7 60 15.5 87 87 Calm 30.04 1017 10 16.0934 0 0
9:35 pm 21:35 Clear 63 17.3 59 15.1 87 87 Calm 30.04 1017 10 16.0934 0 0
9:55 pm 21:55 Clear 63 17.1 59 14.9 87 87 Calm 30.05 1018 10 16.0934 0 0
10:15 pm 22:15 Clear 62 16.5 58 14.7 89 89 Calm 30.05 1018 10 16.0934 0 0
10:35 pm 22:35 Clear 62 16.5 58 14.7 89 89 Calm 30.05 1018 10 16.0934 0 0
10:55 pm 22:55 Clear 60 15.7 58 14.6 93 93 N 3 6 30.05 1018 10 16.0934 0 0
11:15 pm 23:15 Clear 60 15.7 59 14.8 94 94 Calm 30.05 1018 10 16.0934 0 0
11:35 pm 23:35 Clear 59 15.1 58 14.4 96 96 Calm 30.07 1018 10 16.0934 0 0
11:55 pm 23:55 Clear 60 15.3 58 14.7 96 96 Calm 30.07 1018 10 16.0934 0 0

Powered by AerisWeather